Location: Chmeln�
(49.6483°N, 14.9871°E)
Time: 22:43:38
(UTC+00:00)

Meteor 1-12 Rocket - Pass Details

Date: 18 September 2020
Orbit: 854 x 927 km, 81.2° (Epoch: 30 October)

Event Time Altitude Azimuth Distance (km) Brightness Sun altitude
Rises 18:07:34 0° 173° (S) 3,538 7.2 -10.6°
Reaches altitude 10° 18:10:06 10° 168° (SSE) 2,591 6.5 -11.0°
Maximum altitude 18:15:47 51° 94° (E) 1,124 4.5 -11.9°
Drops below altitude 10° 18:21:24 10° 21° (NNE) 2,562 6.7 -12.8°
Sets 18:23:53 0° 16° (NNE) 3,495 7.4 -13.2°
